TimeEDT,TemperatureF,Dew PointF,Humidity,Sea Level PressureIn,VisibilityMPH,Wind Direction,Wind SpeedMPH,Gust SpeedMPH,PrecipitationIn,Events,Conditions,WindDirDegrees,DateUTC
12:53 AM,39.0,36.0,89,30.18,10.0,Calm,Calm,-,N/A,,Clear,0,2013-05-27 04:53:00
1:53 AM,39.0,36.0,89,30.18,10.0,Calm,Calm,-,N/A,,Clear,0,2013-05-27 05:53:00
2:53 AM,37.0,35.1,93,30.19,10.0,Calm,Calm,-,N/A,,Clear,0,2013-05-27 06:53:00
3:53 AM,35.1,33.1,92,30.20,9.0,Calm,Calm,-,N/A,,Clear,0,2013-05-27 07:53:00
4:53 AM,36.0,34.0,93,30.22,10.0,Calm,Calm,-,N/A,,Clear,0,2013-05-27 08:53:00
5:53 AM,35.1,33.1,92,30.23,10.0,Calm,Calm,-,N/A,,Clear,0,2013-05-27 09:53:00
6:53 AM,39.0,36.0,89,30.24,10.0,Calm,Calm,-,N/A,,Clear,0,2013-05-27 10:53:00
7:53 AM,46.9,39.9,77,30.25,10.0,WNW,6.9,-,N/A,,Clear,290,2013-05-27 11:53:00
8:53 AM,51.1,41.0,68,30.26,10.0,WNW,8.1,-,N/A,,Clear,290,2013-05-27 12:53:00
9:53 AM,55.0,41.0,59,30.25,10.0,WNW,4.6,-,N/A,,Clear,290,2013-05-27 13:53:00
10:53 AM,59.0,41.0,51,30.24,10.0,West,8.1,-,N/A,,Clear,280,2013-05-27 14:53:00
11:53 AM,63.0,36.0,37,30.22,10.0,West,16.1,23.0,N/A,,Clear,280,2013-05-27 15:53:00
12:53 PM,64.9,32.0,29,30.20,10.0,West,15.0,20.7,N/A,,Clear,280,2013-05-27 16:53:00
1:53 PM,66.0,30.0,26,30.19,10.0,West,13.8,23.0,N/A,,Clear,280,2013-05-27 17:53:00
2:53 PM,66.9,32.0,27,30.18,10.0,WNW,12.7,-,N/A,,Clear,300,2013-05-27 18:53:00
3:53 PM,66.9,28.9,24,30.17,10.0,WNW,15.0,-,N/A,,Clear,290,2013-05-27 19:53:00
4:53 PM,66.9,28.9,24,30.17,10.0,WNW,11.5,-,N/A,,Clear,300,2013-05-27 20:53:00
5:53 PM,66.0,30.0,26,30.17,10.0,West,13.8,-,N/A,,Clear,280,2013-05-27 21:53:00
6:53 PM,64.9,28.9,26,30.16,10.0,West,10.4,-,N/A,,Clear,280,2013-05-27 22:53:00
7:53 PM,60.1,35.1,39,30.17,10.0,NW,5.8,-,N/A,,Clear,320,2013-05-27 23:53:00
8:53 PM,54.0,36.0,51,30.16,10.0,Calm,Calm,-,N/A,,Clear,0,2013-05-28 00:53:00
9:53 PM,46.9,39.0,74,30.17,10.0,Calm,Calm,-,N/A,,Clear,0,2013-05-28 01:53:00
10:53 PM,45.0,39.0,80,30.19,10.0,ENE,3.5,-,N/A,,Clear,70,2013-05-28 02:53:00
11:53 PM,44.1,37.9,79,30.20,10.0,ESE,5.8,-,N/A,,Clear,120,2013-05-28 03:53:00